GFSNE_con_sbcape_105.txt.gz
CAPE
15 6 8 0 0 0 0 0 0 0 0 0 0 0 0 0 0 0 0 0 0 0 0 0 0 0 0 0 0 0 3 25 45 48 42 36 38 25
24 8 5 1 0 0 0 0 0 0 0 0 0 0 0 0 0 0 0 0 0 0 0 0 0 0 0 0 0 0 0 0 0 0 0 0 0 1
19 8 7 3 0 0 0 0 0 0 0 0 0 0 0 0 0 0 0 0 0 0 0 0 0 0 0 0 0 0 0 0 0 0 0 1 1 3
47 1 4 3 0 0 0 0 0 0 0 4 0 0 0 0 0 0 0 0 0 0 0 0 0 0 0 0 0 0 0 0 0 0 1 1 2 3
5 4 8 1 0 0 1 0 0 0 0 0 2 0 0 0 0 0 0 0 0 1 0 0 0 0 0 0 0 1 1 1 0 1 0 0 1 2
17 2 17 1 0 0 0 0 0 0 0 0 0 0 0 0 1 1 0 0 0 0 0 0 0 0 0 0 0 1 1 1 1 1 0 0 0 0
1 2 1 0 0 0 0 0 0 0 0 0 0 0 0 0 0 0 1 0 1 1 3 2 1 1 0 1 2 2 2 2 2 2 1 0 0 0
1 0 2 0 0 0 0 0 0 0 0 0 0 0 0 0 0 0 0 0 1 0 1 2 0 0 1 0 2 2 2 1 1 0 0 0 0 0
1 0 0 1 0 0 0 1 1 2 1 0 0 0 0 0 0 0 0 0 1 0 0 0 0 0 0 3 2 2 2 0 0 0 0 0 0 0
0 0 0 0 0 0 0 0 0 0 0 0 1 1 0 0 0 0 0 0 0 0 0 0 0 0 0 0 2 0 0 0 0 0 0 0 0 0
0 0 0 0 0 0 0 0 0 0 1 2 2 1 0 0 0 0 0 0 0 0 0 0 0 0 0 0 0 0 0 0 0 0 0 0 0 0
0 0 0 0 0 0 0 0 0 0 0 0 0 0 0 0 0 0 0 0 0 0 0 0 0 0 0 0 0 0 0 0 0 0 1 0 0 0
0 0 0 1 1 1 0 0 0 0 0 0 0 0 0 0 0 0 0 0 0 0 0 0 0 0 0 0 1 0 0 0 0 0 0 0 0 0
1 1 3 7 6 2 1 2 1 0 0 0 0 0 0 0 0 0 0 0 0 0 0 0 0 0 0 0 0 0 0 0 0 0 0 0 0 0
1 3 3 2 2 0 2 1 0 0 0 0 0 0 0 1 1 0 0 0 0 0 0 0 0 0 0 0 0 0 0 0 0 0 0 0 0 0
0 0 0 0 0 0 0 0 0 0 0 0 0 0 0 0 0 0 0 0 0 0 0 0 0 0 0 0 0 0 0 0 0 0 0 0 0 0
0 0 0 0 0 0 0 0 0 0 0 0 0 0 0 0 0 0 0 0 0 0 0 0 0 0 0 0 0 0 0 0 0 0 0 0 0 0
0 0 0 0 0 0 0 0 0 0 0 0 0 0 0 0 0 0 0 0 0 0 0 0 0 0 0 0 0 0 0 0 0 0 0 0 0 0
0 0 0 0 0 0 0 0 0 1 0 0 0 0 0 1 0 0 0 0 0 0 0 0 0 0 0 0 0 0 0 0 0 0 0 0 0 0
0 0 0 0 0 0 0 0 0 0 0 0 0 0 0 0 0 0 0 0 0 0 0 0 0 0 0 0 0 0 0 0 0 0 0 0 0 0
1 1 0 0 1 0 0 0 0 0 0 0 0 0 0 0 0 0 0 0 0 0 0 0 0 0 0 0 0 0 0 0 0 0 0 0 0 0
0 0 0 0 0 0 0 0 0 0 0 0 0 0 0 0 0 0 0 0 0 0 0 0 0 0 0 0 0 0 0 0 0 0 0 0 0 0
0 0 0 0 0 0 0 0 0 0 0 0 0 0 0 0 0 0 0 0 0 0 0 0 0 0 0 0 0 0 0 0 0 0 0 0 0 0

GFSNE_con_sbcape_108.txt.gz
CAPE
107 40 33 25 6 0 0 0 0 0 0 0 0 0 0 0 0 0 0 0 0 0 0 0 0 0 0 0 0 0 12 57 80 99 97 96 71 57
115 54 39 30 5 0 0 0 0 0 0 0 0 0 0 0 0 0 0 0 0 0 0 0 0 0 0 0 0 0 0 0 0 0 0 0 0 6
39 45 44 19 7 0 0 0 0 0 0 0 0 0 0 0 0 0 0 0 0 0 0 0 0 0 0 0 0 0 0 0 0 0 0 0 0 1
63 56 33 16 6 0 0 0 0 0 0 0 0 0 0 0 0 0 0 0 0 0 0 0 0 0 0 0 0 0 0 0 0 0 0 0 1 2
38 52 12 14 18 1 0 0 0 0 0 0 0 0 0 0 0 0 0 0 0 0 0 0 0 0 0 0 0 0 0 0 0 0 0 0 0 3
3 22 29 24 13 0 0 0 0 0 0 0 0 0 0 0 9 7 1 1 1 0 0 0 1 1 0 0 0 1 1 1 1 1 0 0 0 1
1 9 2 7 5 2 0 0 0 0 0 0 0 0 0 0 5 0 0 0 2 2 2 2 1 1 2 2 3 2 3 4 4 3 0 0 0 0
1 1 1 1 1 1 0 0 0 0 0 0 0 0 0 0 0 0 0 0 1 0 1 1 0 0 1 2 1 2 2 1 0 0 0 0 0 0
1 1 0 1 1 0 1 1 2 1 0 0 1 0 0 0 0 0 0 0 0 0 0 0 0 0 0 2 2 3 2 1 0 0 0 0 0 0
1 1 0 0 0 0 0 0 0 0 0 1 0 1 1 0 0 0 0 0 0 0 0 0 0 0 0 0 4 3 2 1 0 0 0 0 0 0
1 1 1 0 0 0 0 0 0 0 1 1 2 1 1 0 0 0 1 0 0 0 0 0 0 0 0 1 0 4 4 3 4 2 1 0 0 0
0 0 1 0 0 0 0 0 0 0 0 0 0 0 0 0 0 0 0 0 0 0 0 0 0 0 1 0 0 0 0 3 2 1 0 0 0 0
1 1 1 2 2 1 0 0 0 0 0 0 0 0 0 0 0 0 0 0 0 0 0 0 0 0 0 1 1 1 0 0 0 0 0 0 0 0
2 2 4 6 4 2 1 2 1 0 0 0 0 0 0 0 0 0 0 0 0 1 1 0 0 0 0 1 0 1 0 0 0 0 0 0 0 0
3 4 5 4 2 1 2 0 0 0 0 0 0 0 0 1 0 0 0 0 0 0 0 0 0 0 0 0 0 0 0 0 0 0 0 0 0 0
0 0 0 2 0 0 0 0 0 0 0 0 0 0 0 0 1 0 0 0 0 0 0 0 0 0 0 0 0 0 0 0 0 0 0 0 0 0
0 0 0 0 0 0 0 0 0 0 0 0 0 0 0 0 1 1 1 0 0 0 0 0 0 0 0 0 0 0 0 0 0 0 0 0 0 0
0 0 0 0 0 0 0 0 0 0 0 0 0 0 0 0 1 1 0 0 0 0 0 0 0 0 0 0 0 0 0 0 0 0 0 0 0 0
0 0 0 0 0 0 0 0 0 0 0 0 0 1 1 0 1 0 1 0 2 0 0 0 0 0 0 0 0 0 0 0 0 0 0 0 0 0
0 0 0 0 0 0 0 0 0 0 0 0 0 0 0 0 0 0 0 1 0 0 0 0 0 0 0 0 0 0 0 0 1 0 0 0 0 0
1 1 1 1 0 0 0 0 0 0 0 0 0 0 0 0 0 0 0 0 0 0 0 0 0 0 0 0 0 0 0 0 0 0 0 0 0 0
0 0 0 0 0 0 0 0 0 0 0 0 0 0 0 0 0 0 0 0 0 0 0 0 0 0 0 0 0 0 0 0 0 0 0 0 1 1
0 0 0 0 0 0 0 0 0 0 0 0 0 0 0 0 0 0 0 0 0 0 0 0 0 0 0 0 0 0 0 0 0 0 0 0 0 0

GFSNE_con_sbcape_111.txt.gz
CAPE
335 344 309 274 128 154 80 53 65 16 2 1 1 2 1 1 0 10 0 0 0 0 0 0 0 0 0 0 1 3 5 9 36 91 117 143 165 182
274 278 255 288 199 127 138 34 83 10 2 14 0 0 0 0 0 20 1 0 0 0 0 0 0 0 0 0 0 0 0 0 0 0 9 9 0 0
183 347 285 248 153 127 118 185 2 5 13 27 0 0 0 0 0 2 20 2 0 0 0 0 0 0 0 0 0 0 0 0 0 0 0 0 0 2
333 279 157 72 82 108 51 7 22 4 24 2 0 0 0 0 0 5 13 1 0 0 0 0 0 0 0 0 0 0 0 0 0 0 0 0 0 1
63 111 194 174 105 49 31 2 0 0 1 1 0 0 0 0 0 2 30 19 0 0 1 0 0 0 0 0 0 0 0 0 0 0 0 0 0 0
6 12 7 14 64 35 43 15 0 1 0 0 0 0 0 0 3 3 2 3 1 0 0 0 0 0 0 0 0 0 0 1 0 0 0 0 0 0
2 5 9 25 3 24 45 19 0 0 1 2 1 0 0 0 1 5 1 2 5 5 5 6 3 5 5 1 3 2 3 3 3 2 1 0 0 2
2 2 5 1 0 0 0 0 8 0 0 1 1 1 0 0 0 1 0 0 1 4 4 5 3 5 4 2 1 1 2 3 2 1 0 0 0 0
3 4 2 1 0 1 1 1 1 0 0 0 0 0 0 0 0 0 0 0 0 1 0 3 1 0 1 3 2 1 1 0 0 0 0 0 0 0
4 5 4 4 2 0 0 0 0 0 0 1 0 0 0 0 0 0 0 0 0 0 0 0 0 0 0 3 6 5 2 0 0 0 0 0 0 0
3 5 4 2 0 0 0 0 0 0 1 3 2 1 0 0 1 0 0 0 0 0 0 0 1 0 0 0 1 6 3 2 2 2 2 0 0 0
2 3 6 3 0 0 2 0 0 0 0 0 0 0 0 0 0 0 0 0 0 0 0 0 0 0 1 3 0 0 5 8 8 8 2 0 0 0
4 4 7 9 6 3 1 1 1 0 0 0 0 0 0 0 0 0 0 0 0 0 0 0 0 2 2 2 1 1 1 1 1 3 0 0 0 0
3 4 4 7 8 5 3 2 1 1 2 0 0 0 0 0 0 0 0 0 0 1 1 0 0 0 1 0 0 2 2 3 0 0 0 0 0 0
4 4 2 2 1 1 3 2 1 1 1 1 2 4 4 4 2 1 1 1 1 1 2 1 0 0 0 1 0 2 1 3 0 0 0 0 0 0
1 4 3 2 1 0 0 0 0 1 0 1 1 2 2 2 3 5 2 1 0 1 2 2 2 1 2 2 1 4 1 0 0 0 0 0 0 0
2 1 2 5 4 3 0 0 0 1 1 1 1 1 1 2 3 2 3 2 1 1 2 2 2 0 1 0 0 0 0 1 3 1 0 0 0 0
1 4 5 3 2 2 1 2 3 2 2 2 2 2 3 3 2 2 2 1 1 1 1 2 2 1 0 1 1 3 2 0 0 0 0 0 0 0
4 5 5 4 3 2 2 2 1 2 1 2 2 3 3 2 2 2 2 1 1 0 0 0 0 0 0 0 1 0 0 0 0 0 0 0 0 0
3 5 6 5 3 2 2 1 1 1 2 2 2 3 4 4 4 3 3 2 0 0 0 0 0 0 0 1 3 3 0 2 1 0 0 0 0 0
4 3 5 3 1 0 3 4 3 2 2 2 2 2 4 2 2 2 1 0 0 0 0 0 0 0 0 0 2 1 0 0 0 0 0 0 0 0
6 3 2 2 2 1 2 4 3 2 2 1 3 4 5 3 2 0 0 0 0 0 0 0 0 0 0 0 0 0 0 0 0 0 0 0 1 1
7 6 5 4 2 1 0 1 2 3 2 1 2 1 3 2 2 2 1 0 0 0 0 0 0 0 0 0 0 0 0 0 0 0 0 0 0 0

GFSNE_con_sbcape_114.txt.gz
CAPE
1039 1521 1311 1205 1023 922 614 448 408 230 9 14 70 13 7 5 0 0 1 0 0 0 0 0 0 0 0 1 2 5 10 13 18 14 16 49 108 163
835 784 818 864 793 841 629 462 244 410 134 13 84 91 12 4 1 0 18 8 0 0 0 0 0 0 0 0 0 0 0 3 8 8 11 29 65 109
551 532 585 597 416 314 321 382 469 203 68 10 18 52 0 4 2 0 1 7 35 0 0 0 0 0 0 0 0 0 0 0 0 0 1 3 8 3
406 278 359 379 441 568 608 383 397 230 103 24 39 0 0 7 2 0 1 4 19 0 0 0 0 0 0 0 0 0 0 0 0 0 0 0 0 1
197 301 438 411 433 488 282 227 162 63 119 35 9 24 17 14 4 2 2 1 2 0 0 0 0 0 0 0 0 0 0 0 0 0 0 0 0 0
4 72 108 85 83 120 112 46 20 22 12 3 4 0 1 1 5 2 3 3 0 0 0 0 0 0 0 0 0 0 0 1 0 0 0 0 0 0
12 13 12 1 0 0 1 24 130 38 34 6 1 0 1 0 1 1 0 1 1 2 3 4 4 3 2 0 0 0 0 0 0 0 0 0 0 0
1 1 1 0 0 0 0 1 0 5 58 35 4 2 2 1 0 0 0 0 0 0 0 2 2 4 5 3 0 0 0 1 2 2 1 1 1 0
3 3 2 1 1 4 1 0 0 0 0 0 2 0 0 0 0 0 0 0 0 0 0 0 1 1 3 2 1 1 2 2 3 3 2 0 0 0
4 4 5 6 5 3 6 2 2 2 1 1 0 0 1 0 0 0 0 0 0 0 0 0 0 0 1 2 4 3 3 2 2 1 0 0 0 0
4 6 5 7 3 0 3 4 3 2 1 2 2 1 1 1 1 0 0 0 0 0 0 0 0 1 0 0 2 5 3 4 2 3 5 3 0 0
2 3 6 7 4 3 3 4 2 3 2 0 0 0 0 0 0 0 0 0 0 0 0 0 0 0 1 4 0 0 1 6 8 8 7 4 0 0
4 2 4 6 4 4 3 5 6 3 2 2 5 4 0 0 0 0 0 1 0 0 0 0 0 1 1 0 0 0 4 2 4 7 8 5 0 0
4 4 4 5 4 3 2 1 1 1 1 0 0 3 3 1 0 0 0 0 0 0 1 0 0 0 1 0 0 1 1 2 2 4 4 2 0 0
9 9 6 5 2 3 3 1 1 1 0 0 1 2 7 7 3 1 1 1 0 0 0 0 0 1 0 1 0 1 1 5 6 6 4 0 0 0
6 10 5 3 4 5 3 4 8 8 1 0 1 2 2 1 1 2 2 0 0 0 2 1 1 1 1 2 1 5 3 4 10 5 0 0 0 0
12 16 14 13 11 10 10 10 13 8 6 7 5 3 3 2 2 3 2 2 2 2 2 4 5 3 3 5 8 7 9 10 3 0 0 1 1 1
9 11 12 15 13 13 12 11 12 11 14 10 9 9 8 7 6 4 3 5 4 3 4 6 5 3 1 2 6 6 3 4 4 0 0 1 0 0
11 13 15 16 14 12 12 14 14 13 11 11 11 11 10 9 8 7 6 4 4 3 3 3 4 5 4 2 2 3 5 6 2 1 0 0 0 0
5 10 14 12 7 6 9 11 11 13 13 12 13 13 12 12 10 7 7 6 4 3 3 3 2 3 6 4 5 3 0 5 2 0 0 0 0 0
6 6 8 9 8 7 20 18 17 14 14 14 11 8 11 7 5 3 2 0 0 0 0 0 0 0 2 1 4 4 1 0 0 0 0 0 0 0
16 11 11 15 15 12 16 18 14 16 13 11 18 21 17 8 6 4 3 0 0 0 0 0 0 0 0 0 1 0 0 0 0 0 0 0 0 0
16 18 16 17 16 13 9 14 11 17 11 11 14 12 14 11 7 7 4 0 0 0 0 0 0 0 0 0 0 0 0 0 0 0 0 0 0 0

GFSNE_con_sbcape_117.txt.gz
CAPE
1282 1191 1752 1730 1786 1523 1232 678 979 886 682 337 306 314 138 2 3 3 0 0 0 0 0 0 0 0 0 0 2 8 9 14 15 11 16 21 31 40
1134 1181 1195 1777 1584 1529 1246 1267 1129 923 741 702 188 249 286 34 4 5 9 0 0 0 0 0 0 0 0 0 0 0 2 2 7 9 16 14 21 27
973 1016 1188 1574 1310 721 593 923 941 717 371 540 554 377 548 231 17 6 16 1 0 0 0 0 0 0 0 0 0 0 0 0 0 1 4 9 15 22
865 796 666 793 931 726 460 292 319 361 378 262 446 376 294 458 180 8 2 7 0 0 0 0 0 0 0 0 0 0 0 0 0 0 0 2 5 14
648 383 630 551 320 266 466 569 607 288 431 308 134 75 67 201 64 8 11 4 5 0 0 0 0 0 0 0 0 0 0 0 0 0 0 0 0 0
176 142 191 101 93 0 21 81 160 308 90 69 103 24 34 24 61 1 3 2 2 0 0 0 0 0 0 0 0 0 0 0 0 0 0 0 0 0
0 0 0 0 0 0 0 1 1 3 7 34 15 8 10 1 1 1 1 0 1 0 0 0 0 0 0 0 0 0 0 0 0 1 1 0 0 0
1 0 0 0 0 0 0 0 0 5 5 6 11 14 0 6 0 0 1 0 0 0 0 0 0 0 0 0 0 0 1 0 0 0 0 0 0 0
3 2 0 1 1 1 0 0 0 0 0 3 3 2 1 0 0 0 0 0 0 0 0 0 0 0 0 0 0 0 0 0 0 0 0 0 0 0
4 3 4 3 2 2 3 2 3 5 5 5 5 3 1 2 1 3 0 0 0 0 0 0 0 0 0 0 2 2 1 1 4 6 4 2 1 0
3 3 4 4 4 1 2 4 1 2 2 1 0 1 2 2 1 0 0 0 1 1 0 0 0 0 0 0 0 5 3 2 4 3 3 3 2 2
4 6 7 8 5 2 3 3 3 5 4 1 1 1 2 2 1 1 1 0 1 0 0 0 0 0 0 1 0 0 0 1 3 5 8 9 5 1
1 1 3 7 6 6 4 3 3 4 2 2 2 2 2 4 4 2 1 0 0 0 0 0 0 0 1 0 1 2 2 3 3 7 9 10 9 4
8 7 8 6 7 6 3 3 1 1 2 1 0 1 1 1 2 4 2 1 0 0 0 0 0 0 0 0 0 0 0 0 0 1 1 4 4 3
14 8 3 2 1 5 3 1 2 5 3 1 2 1 1 1 0 0 0 1 0 0 0 0 0 0 0 0 0 0 0 0 1 0 1 3 5 6
14 24 10 6 7 11 13 17 27 22 12 6 4 3 2 0 0 1 0 0 0 0 0 0 1 0 0 0 0 0 0 1 2 5 7 8 6 3
18 21 18 17 16 21 19 17 19 18 20 22 13 10 9 4 4 1 1 0 0 0 0 0 0 0 2 2 1 0 2 5 10 11 12 7 10 9
11 18 23 24 23 19 20 19 18 13 15 16 9 11 9 10 8 7 4 4 3 3 2 8 5 2 0 0 5 2 3 2 2 2 2 8 9 4
16 17 28 27 18 11 10 15 16 16 14 8 13 9 16 10 9 9 7 5 3 2 2 2 4 4 2 0 2 4 3 3 4 5 5 1 4 2
3 5 7 8 6 5 10 8 8 8 11 11 11 14 16 13 12 11 9 8 5 4 2 1 1 3 2 2 2 1 2 7 9 4 0 0 0 0
6 6 7 8 8 8 15 14 18 16 15 17 16 12 14 11 9 9 5 0 1 1 1 2 2 3 2 0 1 2 0 0 0 0 0 0 0 0
10 7 10 11 12 11 14 17 16 13 16 15 14 18 21 13 10 5 4 2 0 0 0 0 0 0 0 1 1 1 1 0 0 0 0 0 0 1
12 14 12 11 11 11 9 14 10 11 11 11 10 11 12 12 9 8 5 2 0 0 0 0 0 0 0 0 0 0 0 0 0 0 0 0 0 0

GFSNE_con_sbcape_120.txt.gz
CAPE
1121 1163 995 958 964 987 885 529 303 281 209 244 246 247 154 122 82 0 0 0 0 0 0 0 0 0 0 0 0 0 2 8 10 18 19 16 31 33
1084 1146 1105 1063 1090 1053 891 631 424 305 245 352 178 217 160 97 57 0 0 0 1 1 0 0 0 0 0 0 0 0 0 5 7 8 11 14 16 26
972 1051 1044 1068 1259 1052 826 647 536 388 260 236 175 99 43 37 1 0 0 0 0 1 1 1 0 0 0 0 0 0 0 0 0 1 2 9 15 18
909 881 908 956 1052 1022 564 383 246 213 228 207 162 158 169 57 0 0 0 2 0 0 1 0 0 0 0 0 0 0 0 0 0 0 0 0 5 21
889 805 796 868 916 588 433 341 201 231 215 135 102 99 63 69 53 14 1 0 0 0 0 0 0 0 0 0 0 0 0 0 0 0 0 0 0 3
521 243 14 31 47 0 0 0 0 0 7 47 46 14 42 30 13 12 16 0 0 2 0 0 0 0 0 0 0 0 0 0 0 0 0 0 0 0
5 5 4 0 0 0 1 0 0 0 1 1 0 0 6 11 9 9 17 1 0 0 0 0 0 0 0 0 0 0 0 0 0 0 0 0 0 0
3 5 5 2 2 0 0 0 0 0 2 4 2 2 1 14 16 14 16 7 0 0 0 0 0 0 0 0 0 0 0 0 0 0 0 0 0 1
5 4 5 6 5 2 0 0 0 0 0 2 3 3 2 3 4 1 2 1 0 0 0 0 0 0 0 0 1 0 0 0 0 0 0 1 1 1
0 1 2 1 2 1 2 2 2 2 1 2 2 2 2 3 4 5 3 1 0 0 0 0 0 0 0 0 0 0 0 0 0 0 0 0 1 3
2 2 2 2 3 2 1 1 0 1 2 1 1 1 1 1 3 3 0 1 1 0 0 0 0 0 0 0 0 2 0 0 0 1 2 3 2 2
0 0 7 5 7 4 1 1 1 1 0 0 0 0 0 0 1 1 3 1 1 0 0 0 0 0 0 0 0 0 0 2 5 6 6 5 2 0
0 0 2 10 11 9 6 1 2 0 0 0 0 0 0 0 0 0 0 1 1 0 0 0 0 0 0 0 0 0 0 0 0 2 6 5 4 0
2 2 1 7 5 5 1 4 1 0 0 0 0 0 0 0 0 0 0 0 0 0 1 0 0 0 0 0 0 0 0 0 0 0 0 6 9 6
4 3 9 8 7 0 4 2 1 1 0 0 0 0 0 0 0 0 0 0 0 0 0 0 0 0 0 0 0 0 0 0 0 0 0 0 0 0
2 0 0 0 0 0 2 0 0 0 1 3 4 1 0 0 0 1 0 0 0 0 0 0 0 0 0 0 0 0 0 0 0 0 0 0 0 1
0 0 0 0 0 0 0 1 0 0 0 0 1 1 0 0 0 0 0 0 0 0 0 0 0 0 0 0 0 0 0 0 0 0 0 0 0 0
0 0 0 0 0 0 0 0 0 0 0 0 0 0 1 0 0 0 0 0 0 0 0 0 0 0 0 0 3 0 0 0 0 1 0 0 1 1
0 0 0 0 0 0 0 0 0 0 0 0 0 0 0 0 1 1 0 0 0 0 0 0 0 0 0 0 0 4 0 0 0 0 0 0 0 1
0 0 0 0 0 0 0 0 0 0 0 0 0 0 0 1 0 0 0 0 0 0 0 0 0 0 0 0 0 0 3 0 0 0 0 1 0 1
0 0 0 0 0 0 0 0 0 0 0 0 0 0 0 0 0 0 0 0 0 1 0 0 0 0 1 0 0 0 0 3 1 0 1 0 0 0
0 0 1 0 0 0 0 0 0 0 0 0 0 0 0 0 0 0 0 0 0 0 0 0 0 0 3 0 0 0 2 0 0 0 0 0 0 0
0 0 0 0 0 0 0 0 0 0 0 0 0 0 0 0 0 0 0 0 0 0 0 0 0 0 0 0 0 0 0 0 0 0 0 0 0 0

GFSNE_con_sbcape_123.txt.gz
CAPE
281 580 699 739 773 751 570 343 313 168 150 26 152 225 190 92 28 0 0 0 1 1 1 1 0 0 0 0 0 0 0 0 0 1 6 22 25 31
675 660 688 632 585 692 534 413 148 154 59 68 61 86 167 89 23 0 0 0 1 1 1 1 1 0 0 0 0 0 0 0 0 0 0 4 22 28
752 694 578 657 555 700 701 453 134 127 146 68 73 7 38 47 0 0 0 0 0 1 1 1 1 1 0 1 0 0 0 0 0 0 2 3 17 19
778 793 634 636 661 697 497 485 379 126 86 145 20 10 15 7 0 0 0 0 0 0 1 1 1 1 1 1 1 0 0 0 0 0 0 0 0 6
998 817 782 758 703 672 197 104 59 44 48 83 93 27 26 18 0 0 0 0 0 0 0 0 1 1 0 0 1 1 0 0 0 0 0 0 0 0
208 136 1 0 239 427 353 75 0 5 17 68 22 24 28 2 0 8 2 0 0 0 0 0 0 1 0 0 0 1 1 0 0 0 0 0 0 0
13 5 5 3 1 1 2 1 0 0 0 0 0 0 0 0 0 0 0 0 0 0 3 0 0 0 0 0 0 0 0 0 0 0 0 0 0 0
10 4 3 5 6 4 1 4 2 2 1 0 0 0 1 1 1 1 2 2 11 0 4 0 1 0 0 0 0 0 1 0 0 0 0 0 0 0
9 5 3 6 6 13 9 3 4 2 0 1 1 1 2 3 3 2 2 2 0 0 0 0 0 1 0 0 0 0 0 0 0 0 0 0 0 0
1 1 4 1 8 5 3 3 1 1 0 0 1 1 1 2 2 2 2 2 0 0 0 0 0 0 0 0 2 0 0 0 0 0 0 0 0 0
0 3 1 1 4 2 1 1 0 0 2 2 3 3 2 4 2 1 1 1 0 0 0 0 0 0 0 0 0 4 1 0 0 0 0 0 0 0
0 1 12 9 12 5 0 0 0 0 0 0 0 0 0 0 3 2 4 2 0 0 0 0 0 0 0 0 0 0 0 2 2 0 0 0 0 0
2 2 4 10 7 6 6 1 0 0 0 0 0 0 0 0 0 0 0 1 2 0 0 0 0 0 0 0 0 0 0 0 0 1 4 3 1 0
2 2 0 5 6 2 0 2 2 1 0 0 0 0 0 0 0 0 0 0 0 0 0 1 0 0 0 0 0 0 0 0 0 0 1 5 7 4
0 0 1 0 1 0 1 0 0 0 1 1 2 2 0 0 0 0 0 0 0 0 0 1 0 0 0 0 0 0 0 0 0 0 0 0 0 0
0 0 0 1 0 0 0 0 0 0 1 1 1 0 0 0 0 0 0 0 0 0 0 0 0 0 0 0 0 0 0 0 0 0 0 0 0 0
0 0 0 0 0 0 0 0 0 0 0 0 0 1 0 0 0 0 0 0 0 0 0 0 0 0 0 0 0 0 0 0 0 0 0 0 0 0
0 0 0 0 0 0 0 0 0 0 0 0 1 0 0 0 0 0 0 0 0 0 0 0 0 0 0 0 3 0 0 0 0 0 0 0 0 0
0 0 0 0 0 1 1 0 1 0 0 0 0 0 1 0 0 0 0 0 0 0 0 0 0 0 0 0 0 3 0 0 0 0 0 0 0 0
0 0 0 0 0 0 1 1 1 0 0 0 0 0 0 0 0 0 0 0 0 0 0 0 0 0 0 0 0 0 3 0 0 0 0 0 0 3
0 0 0 1 0 0 0 0 0 0 0 0 0 0 0 0 0 0 0 0 0 0 0 0 0 0 2 0 0 0 0 5 1 0 0 0 0 1
0 0 0 0 0 0 0 0 0 0 0 0 0 0 0 0 0 0 0 0 0 0 0 0 0 2 1 0 0 0 0 0 0 1 0 0 0 0
0 0 0 0 0 0 0 0 0 0 0 0 0 0 0 0 0 0 0 0 0 0 0 0 0 1 2 1 0 1 0 0 0 0 0 0 0 0

GFSNE_con_sbcape_126.txt.gz
CAPE
20 0 0 0 8 454 219 174 248 98 181 55 77 198 173 108 56 0 0 1 1 1 1 1 1 0 0 0 0 0 0 0 0 0 0 7 23 40
0 0 0 0 3 16 320 513 50 201 43 120 12 54 177 117 37 3 0 0 1 0 1 1 1 1 0 0 0 0 0 0 0 0 0 0 2 10
0 0 0 0 13 1 0 354 393 59 55 16 11 0 77 105 43 0 0 0 0 1 1 0 1 1 1 0 0 0 0 0 0 0 0 0 0 0
263 409 341 322 163 13 0 164 371 187 97 156 3 0 13 56 55 0 0 0 0 0 1 1 0 1 1 1 1 1 1 0 0 0 0 0 0 0
0 13 8 0 59 498 446 504 374 275 79 27 1 0 0 0 3 0 0 1 0 1 2 1 1 1 1 1 1 1 1 1 1 0 0 0 0 0
4 3 2 2 1 484 516 492 336 212 76 34 0 0 0 0 0 1 0 0 0 0 0 0 1 1 1 1 1 1 0 0 0 0 0 0 0 0
3 3 4 8 6 4 60 1 70 208 31 5 0 0 0 1 0 0 0 0 4 0 0 0 0 0 0 1 0 0 0 0 0 0 0 0 0 0
2 2 3 1 5 2 10 12 4 0 0 0 0 0 1 1 1 1 0 0 0 0 0 0 0 0 0 0 0 1 1 0 0 0 0 0 0 0
0 1 2 2 2 3 3 6 6 6 4 5 2 4 2 3 2 1 1 1 0 0 0 0 0 1 0 0 1 0 0 0 0 0 1 1 0 0
2 0 1 1 1 0 0 0 1 1 3 3 1 2 1 2 2 2 2 2 0 0 0 0 1 0 0 0 1 1 1 0 0 0 0 1 1 0
1 4 1 1 7 3 0 0 0 0 2 5 7 5 4 3 3 0 1 1 0 0 0 0 0 0 0 0 0 2 3 2 0 0 0 0 0 0
3 3 16 5 8 6 1 0 0 0 0 0 0 0 0 1 2 1 1 1 2 0 1 0 0 0 0 0 0 0 0 2 3 2 1 0 0 0
3 2 1 5 3 4 4 1 1 0 0 0 0 0 0 0 0 0 0 1 1 1 0 1 1 0 0 0 0 0 0 0 0 0 2 1 0 0
2 2 0 3 3 1 0 2 1 0 0 1 0 1 1 1 0 0 0 0 0 0 0 1 1 0 0 0 0 0 0 0 0 1 0 1 4 3
0 1 1 2 4 3 3 1 0 0 0 0 0 1 0 0 0 0 0 0 0 0 0 0 1 1 0 0 0 0 0 0 0 0 0 0 0 0
0 0 0 3 0 0 0 0 0 0 1 2 1 1 0 0 0 0 0 0 0 0 0 0 0 0 0 0 0 0 0 0 0 0 0 0 0 0
0 0 0 0 0 0 0 0 0 0 1 1 0 1 1 0 0 0 0 0 0 0 0 0 0 0 0 0 0 0 0 0 0 0 0 0 0 0
0 0 0 0 0 0 0 0 0 0 0 2 0 1 1 0 0 0 0 0 0 0 0 0 0 0 0 0 3 0 0 0 0 0 0 0 0 0
0 0 0 0 0 0 0 0 0 0 0 0 0 0 1 1 0 0 0 0 0 0 0 0 0 0 0 0 0 1 0 0 0 0 0 0 0 0
0 0 0 0 0 1 0 0 0 0 0 0 0 0 0 0 0 0 0 0 0 0 0 0 0 0 0 0 0 0 4 0 0 0 0 0 0 4
0 0 0 0 0 0 0 0 0 0 0 0 0 0 0 0 0 0 0 0 0 0 0 0 0 0 0 0 0 0 0 5 2 0 0 0 0 1
0 0 0 0 0 0 0 0 0 0 0 0 0 0 0 0 0 0 0 0 0 0 0 0 0 1 0 0 0 0 0 0 1 3 2 1 0 0
0 0 0 0 0 0 0 0 0 0 0 0 0 0 0 0 0 0 0 0 0 0 0 0 0 0 0 0 0 0 0 0 0 0 0 2 1 1

GFSNE_con_sbcape_129.txt.gz
CAPE
119 155 152 155 174 4 2 2 92 6 71 79 119 125 137 103 75 0 0 1 1 1 1 1 0 0 0 0 0 0 0 0 0 0 0 0 4 17
28 53 8 76 1 0 35 12 18 193 127 81 37 37 114 98 47 8 0 0 1 1 1 1 1 1 1 0 0 0 0 0 0 0 0 0 0 0
29 46 0 0 2 0 0 4 92 162 234 97 15 6 26 104 53 2 13 0 0 1 1 1 1 1 1 1 1 1 0 0 0 0 0 0 0 0
95 25 5 0 0 0 0 4 0 6 145 84 133 0 0 27 64 0 15 4 0 1 1 1 1 1 1 1 1 1 1 1 0 0 0 0 0 0
1 1 2 0 1 0 1 0 0 0 17 33 119 9 0 1 10 0 1 1 0 0 1 1 1 1 1 1 1 1 1 1 1 1 1 0 0 0
4 3 4 2 2 1 0 110 4 0 7 84 114 41 0 0 1 8 0 0 0 0 0 0 0 1 1 1 1 1 1 1 1 1 1 1 1 0
3 3 7 6 3 1 1 1 0 6 156 247 139 40 0 0 0 0 0 0 0 0 0 0 0 0 0 1 0 1 1 1 1 0 0 0 1 0
3 3 3 3 5 2 2 1 1 0 2 1 75 6 0 1 1 0 0 0 0 2 0 0 1 0 0 0 0 0 1 1 1 0 0 0 0 0
2 3 4 4 3 4 2 1 1 1 0 2 4 4 2 2 5 2 1 0 0 0 0 0 0 1 0 0 0 0 0 0 0 0 0 1 1 1
2 2 2 2 5 4 2 0 1 1 1 2 0 0 1 2 5 1 2 1 0 0 0 1 0 1 0 0 1 1 1 0 0 0 0 0 1 1
0 3 1 0 11 9 1 0 0 0 3 5 8 5 3 2 1 0 0 0 0 0 0 0 0 0 0 0 0 1 1 1 1 0 0 0 0 0
1 1 13 3 9 7 0 0 0 0 0 0 0 0 1 1 3 0 1 1 1 0 0 0 0 0 0 0 0 0 0 0 0 0 2 2 0 0
1 0 0 11 10 9 7 0 0 0 0 0 0 0 0 0 0 0 0 0 0 0 1 1 1 0 0 0 0 0 0 0 0 0 2 4 1 0
1 1 0 7 8 7 2 6 5 0 0 0 0 1 1 0 0 0 0 0 0 0 0 0 1 2 3 1 0 0 0 0 0 0 0 0 2 3
0 0 2 1 1 2 3 2 1 0 0 0 1 1 0 0 0 0 0 0 0 0 0 0 1 0 0 2 0 0 0 0 0 0 0 0 0 0
0 0 0 3 0 0 0 0 0 0 1 1 1 0 0 1 0 0 0 0 0 0 0 0 0 0 0 0 1 0 0 0 0 0 0 0 0 0
0 0 0 0 0 0 0 0 0 0 0 0 0 0 0 0 0 0 0 0 0 0 0 0 0 0 0 0 0 0 0 0 0 0 0 0 0 0
0 0 0 0 0 0 0 0 0 0 0 0 0 0 0 0 0 0 0 0 0 0 0 0 0 0 0 0 0 0 0 0 0 0 0 0 0 0
0 0 0 0 0 0 0 0 0 0 0 0 0 0 0 0 0 0 0 0 0 0 0 0 0 0 0 0 0 0 0 0 0 0 0 0 0 0
0 0 0 0 0 0 0 0 0 0 0 0 0 0 0 0 0 0 0 0 0 0 0 0 0 0 0 0 0 0 2 0 0 0 0 0 0 3
0 0 0 0 0 0 0 0 0 0 0 0 0 0 0 0 0 0 0 0 0 0 0 0 0 0 0 0 0 0 0 4 1 0 0 0 0 1
0 0 0 0 0 0 0 0 0 0 0 0 0 0 0 0 0 0 0 0 0 0 0 0 0 0 0 0 0 0 0 0 1 3 2 1 0 0
0 0 0 0 0 0 0 0 0 0 0 0 0 0 0 0 0 0 0 0 0 0 0 0 0 0 0 0 0 0 0 0 0 0 0 3 1 3